Погода в Казанском

Россия / Орловская область     52°16′10″N   37°45′06″E
темп.,
°C
ветер,
м/с
пор.,
м/с
влажн.,
%
обл.,
%
осадки,
мм/ч
давл.,
гПа
погр.,
м
17 августа, ср
ср1700:00+24в41040100 0.0 1015216
03:00+24в61335100 0.0 1015382
06:00+22в61240100 0.0 1014273
09:00+21в61243100 0.0 1014387
12:00+27в5631100 0.0 1014761
15:00+26всв71037100 0.0 1013636
18:00+27всв81336100 0.0 10121050
21:00+26всв81436100 0.0 1012879
18 августа, чт
чт1800:00+24в9173887 0.0 1012794
03:00+22всв7144281 0.0 1012570
06:00+20всв71546100 0.0 1012473
09:00+23всв81345100 0.3 1012741
12:00+25в81042100 0.8 10121107
15:00+27в794593 1.3 10111457
18:00+26всв4104788 0.5 1012938
21:00+23всв7135487 0.5 1013695
19 августа, пт
пт1900:00+19всв7147117 0.3 1014530
03:00+18всв7148092 0.6 1014558
06:00+17всв61477100 1.0 1016508
09:00+21в9136693 1.0 10161033
12:00+23в91158100 0.0 10171517
15:00+19в91271100 0.1 1019992
18:00+18всв7146199 0.0 1019747
21:00+19всв61451100 0.0 1019473
20 августа, сб
сб2000:00+20всв61547100 0.0 1019613
03:00+20в61349100 0.0 1018783
06:00+19в81667100 0.1 1018819
09:00+20в61362100 0.7 1020606
12:00+26юв81237100 0.0 10201464
15:00+29юв81030100 0.0 10192203
18:00+25вюв61234100 0.0 1020746
21:00+24вюв101530100 0.0 1021690
21 августа, вс
вс2100:00+23в71631100 0.0 1020681
03:00+22в61530100 0.0 1020600
06:00+21вюв51229100 0.0 1021453
09:00+22вюв51026100 0.0 1021664
12:00+27вюв81019100 0.0 10211154
15:00+28вюв81018100 0.0 10201548
18:00+26вюв7112196 0.0 1020899
21:00+22в61423100 0.0 1020392